DECAYED

TIANHUI 1-03 DEB, 41023 (Decayed)

Orbit data source: Space-Track

TIANHUI 1-03 DEB, 41023 was space debris in SSO originally from a launch on Mon, 26 Oct 2015 UTC launched from the Jiuquan Satellite Launch Center, China (JSC). Debris objects in space refer to the collection of defunct objects orbiting the Earth. Examples of debris include non-operational satellites, rocket bodies, and fragments generated from explosions, collisions, or faulty payload assembly.

Not visible in the next 10 days
Identifier
41023, 2015-061B
Orbit
Decayed
Last TLE update
1 year ago
Origin
Manufacturer
Unknown
Mission
Decayed spacecraft
Bus & Motor
Unknown
Mass
Unknown
Launch date (UTC)
2015-10-26 (10 years ago)
Launch vehicle
Unknown
Launch site
Jiuquan Satellite Launch Center, China (JSC)
Object type
Payload
Rocket body
Debris
Shape & HBR
Unknown
Radar Cross Section
Small (<0.1 m²)

Expand to show TLE details & history

TLE from 1 year ago
0 TIANHUI 1-03 DEB
1 41023U 15061B   24126.01009347  .02924571  12948-1  48679-2 0  9993
2 41023  97.2759  36.2033 0019878 209.8794 150.1355 16.05845536461587
Epoch: 2024-05-05T00:14Z
TLE epoch observation values (Epoch: 2024-05-05T00:14:32.075Z)
Latitude
-0°
Longitude
169.20115°
Altitude
272.923 km
Speed
7.737 km/s
True Right ascension
02h 24m 48s
True Declination
0° 00' 00"
Sunlit
Object was in daylight at epoch
Visualization orbit readout
Visualization observer readout
Orbital elements
Apogee altitude
268.297 km
Perigee altitude
241.926 km
Semi-major axis
6,633.248 km
Eccentricity
0.00199
Inclination
97.2759°
RAAN
36.2033°
Arg. of periapsis
209.8794°
True anomaly
Unknown
Mean anomaly
150.1355°
Eccentric anomaly
Unknown
Mean motion
4.01748 °/min
Orbital period
89.61 mins
BSTAR
0.0048679
Loading maneuver chart data...
Loading SW <> Apogee altitude chart data...
Loading historical data...
Loading historical data...
Loading historical data...
Loading historical data...
Loading historical data...
Loading historical data...
Loading historical data...
Other satellites on launch #61 in the year 2015 (2015-10-26 UTC)

TIANHUI 1-03 DEB Visibility

Observer location: undefined°, undefined°

This satellite is decayed
Span
Click to sort rows by Start time (UTC) header in descending order
Start Az.
Max El. time (UTC)
Max El. Az.
Max El.
End time (UTC)
End Az.
|